{"data":{"norad_id":57851,"epoch":"2026-09-20T22:49:22.602720Z","epoch_age_seconds":95823,"freshness":"FRESH","line1":"1 57851U 23141M   26263.95095605  .00000588  00000+0  30712-4 0  9992","line2":"2 57851  53.1594  95.6659 0001179  95.4597 264.6539 15.31705136170243","mean_motion":15.31705136,"eccentricity":0.0001179,"inclination_deg":53.1594,"raan_deg":95.6659,"arg_perigee_deg":95.4597,"mean_anomaly_deg":264.6539,"bstar":3.0712e-5,"rev_number":17024,"period_min":94.012872723043,"perigee_km":469.91720432701,"apogee_km":471.53216591236,"semimajor_km":6848.8616851197,"source":"CELESTRAK","updated_at":"2026-09-21T09:00:33.713222Z"}}